Location: Doverdale
(52.2833°N, 2.2000°W)
Time: 14:02:30
(UTC+00:00)

Cosmos 1892 - Pass Details

Date: 29 October 2020
Orbit: 504 x 523 km, 82.5° (Epoch: 28 November)

Event Time Altitude Azimuth Distance (km) Brightness Sun altitude
Rises 18:27:50 0° 346° (NNW) 2,669 6.5 -16.2°
Reaches altitude 10° 18:29:59 10° 343° (NNW) 1,776 5.6 -16.6°
Maximum altitude 18:33:50 61° 263° (W) 600 3.2 -17.2°
Drops below altitude 10° 18:37:40 10° 183° (S) 1,762 5.4 -17.8°
Sets 18:39:48 0° 180° (S) 2,645 6.3 -18.1°
